User: anonymous   Login
Location: Arrakis Observatory
(44.1122°N, 95.7153°W)
Time: 16:17:36
(UTC-05:00)
Language:

SL-8 R/B - Orbit

View from above orbital plane
View from above orbital plane
View from above satellite
View from above satellite

Ground track
Ground track

The orbit data is extracted from the following two-line orbital elements,

1 32751U 08014B   14296.01428355  .00300608  34845-4  11145-2 0   137
2 32751 098.1417 269.4032 0010688 084.4693 316.1112 15.87992747367812
Epoch (UTC): 23 October 2014 00:20:34
Eccentricity: 0.0010688
inclination: 98.1417°
perigee height: 301 km
apogee height: 315 km
right ascension of ascending node: 269.4032°
argument of perigee: 84.4693°
revolutions per day: 15.87992747
mean anomaly at epoch: 316.1112°
orbit number at epoch: 36781

The dashed part of the orbit path shows where the satellite is in the earth's shadow,  

DLR